Flag for Poland Weather past 2 weeks in Ruda Śląska, Poland

Now
68 °F

Sunny.


Feels Like: 68 °F
Forecast: 50 / 72 °F
Wind: 12 mph from East

Location: Katowice Airport

Current Time: Sep 17, 2014 at 4:03:13 PM

Latest Report: Sep 17, 2014 at 3:30 PM


Visibility: 10 mi

Pressure: 30.12 "Hg

Humidity: 56%

Dew point: 52 °F

Location of Ruda ŚląskaLocation

Historic Weather in Ruda Śląska — Graph

°F

Ruda Śląska temperature yesterday

Maximum temperature yesterday: 72 °F (at 3:00 PM)
Minimum temperature yesterday: 52 °F (at 6:00 AM)
Average temperature yesterday: 61 °F

Past Weeks' High & Low Weather Summary

 TemperatureHumidityPressure
High79 °F (Sep 8, 3:00 PM)100% (Sep 3, 1:00 AM)30.21 "Hg (Sep 3, 1:00 AM)
Low46 °F (Sep 13, 5:30 AM)44% (Sep 10, 3:00 AM)29.92 "Hg (Sep 6, 4:00 PM)
Average62 °F81%30.05 "Hg
* Reported Sep 2 3:00 PM — Sep 17 3:00 PM, Ruda Śląska, Weather by CustomWeather, © 2014

Note: Actual official high and low records may vary slightly from our data, if they occured in-between our weather recording intervals... More about our weather records

Advertising

Ruda Śląska weather history for previous 24 hours

 ConditionsComfort  
Time TempWeatherWind HumidityBarometerVisibility
3:00 PM
Sep 17
70 °FSunny.12 mph53%30.09 "Hg10 mi
2:30 PM70 °FSunny.10 mph57%30.12 "Hg10 mi
2:00 PM70 °FSunny.12 mph53%30.12 "Hg10 mi
1:30 PM70 °FPassing clouds.9 mph57%30.12 "HgN/A
1:00 PM70 °FPassing clouds.8 mph57%30.12 "HgN/A
12:30 PM70 °FPassing clouds.8 mph46%30.12 "HgN/A
12:00 PM68 °FPassing clouds.7 mph49%30.12 "HgN/A
11:30 AM66 °FSunny.9 mph52%30.12 "Hg10 mi
11:00 AM66 °FSunny.9 mph56%30.15 "Hg10 mi
10:30 AM64 °FSunny.10 mph60%30.15 "Hg10 mi
10:00 AM63 °FPassing clouds.7 mph64%30.15 "HgN/A
9:30 AM61 °FSunny.10 mph68%30.15 "Hg10 mi
9:00 AM59 °FSunny.9 mph72%30.12 "Hg10 mi
8:30 AM55 °FSunny.7 mph77%30.12 "Hg10 mi
8:00 AM54 °FSunny.6 mph82%30.12 "Hg10 mi
7:30 AM52 °FSunny.8 mph88%30.12 "Hg10 mi
7:00 AM50 °FClear.6 mph88%30.12 "Hg10 mi
6:30 AM52 °FClear.8 mph82%30.12 "Hg10 mi
6:00 AM52 °FClear.9 mph88%30.12 "Hg10 mi
5:30 AM52 °FClear.8 mph88%30.12 "Hg10 mi
5:00 AM50 °FClear.6 mph88%30.12 "Hg10 mi
4:30 AM54 °FClear.8 mph82%30.12 "Hg10 mi
4:00 AM54 °FClear.10 mph82%30.12 "Hg10 mi
3:30 AM54 °FClear.7 mph82%30.12 "Hg10 mi
3:00 AM52 °FClear.8 mph88%30.12 "Hg10 mi
2:30 AM50 °FClear.7 mph94%30.12 "Hg10 mi
2:00 AM50 °FClear.7 mph94%30.12 "Hg10 mi
1:30 AM50 °FClear.7 mph94%30.12 "Hg10 mi
1:00 AM52 °FClear.6 mph94%30.12 "Hg10 mi
12:30 AM52 °FClear.6 mph94%30.15 "Hg10 mi
12:00 AM54 °FClear.5 mph88%30.15 "Hg10 mi
11:30 PM
Sep 16
54 °FClear.6 mph88%30.15 "Hg10 mi
11:00 PM55 °FClear.6 mph82%30.15 "Hg10 mi
10:30 PM57 °FClear.7 mph82%30.15 "Hg10 mi
10:00 PM57 °FClear.7 mph82%30.15 "Hg10 mi
9:30 PM57 °FClear.8 mph82%30.15 "Hg10 mi
9:00 PM57 °FClear.8 mph88%30.15 "Hg10 mi
8:30 PM61 °FPassing clouds.6 mph77%30.15 "HgN/A
8:00 PM63 °FPassing clouds.7 mph73%30.15 "HgN/A
7:30 PM64 °FSunny.6 mph68%30.12 "Hg10 mi
7:00 PM66 °FSunny.6 mph64%30.12 "Hg10 mi
6:30 PM68 °FSunny.7 mph60%30.12 "Hg10 mi
6:00 PM68 °FSunny.10 mph60%30.12 "Hg10 mi
5:30 PM68 °FSunny.10 mph60%30.12 "Hg10 mi
5:00 PM70 °FPassing clouds.9 mph57%30.12 "HgN/A
4:30 PM70 °FSunny.13 mph57%30.12 "Hg10 mi
4:00 PM72 °FSunny.14 mph53%30.12 "Hg10 mi
Weather by CustomWeather, © 2014

See weather overviewHow to use our weather pages